Regional Weather Roundup
Issued by NWS Newport/Morehead, NC

Home | Current Version | Previous Version | Text Only | Print | Product List | Glossary On
Versions: 1 2 3 4 5 6 7 8 9 10 11 12 13 14 15 16 17 18 19 20 21 22 23 24 25 26 27 28 29 30 31 32 33 34 35 36 37 38 39 40 41 42 43 44 45 46 47 48 49 50
000
ASUS42 KMHX 071624
RWRMHX
WEATHER ROUNDUP FOR EASTERN NORTH CAROLINA
NATIONAL WEATHER SERVICE NEWPORT/MOREHEAD CITY NC
1100 AM EST WED DEC 07 2016

NOTE: "FAIR" INDICATES FEW OR NO CLOUDS BELOW 12,000 FEET
WITH NO SIGNIFICANT WEATHER AND/OR OBSTRUCTIONS TO VISIBILITY

NCZ015>017-031-032-045>047-102-103-071700-
NORTH COAST

CITY           SKY/WX    TMP DP  RH WIND       PRES   REMARKS
EDENTON        MOSUNNY   53  46  75 N10G17    30.05S
ELIZABETH CITY MOSUNNY   54  44  69 N15       30.03S
KITTY HAWK     CLOUDY    50  48  93 NW10      30.01R
MANTEO         CLOUDY    49  46  87 N13G18    30.03R

$$

NCZ045>047-081-094-103-104-071700-
CENTRAL COAST

CITY           SKY/WX    TMP DP  RH WIND       PRES   REMARKS
FRISCO         CLOUDY    50  45  83 VRB6      30.02S

$$

NCZ095-097-098-100-101-071700-
SOUTHERN COAST

CITY           SKY/WX    TMP DP  RH WIND       PRES   REMARKS
BEAUFORT       MOSUNNY   54  46  74 NW5       30.04F
CEDAR ISLAND   NOT AVBL
JACKSONVILLE   NOT AVBL
PINEY ISLAND   CLOUDY   N/A N/A N/A NW13      30.04S
WILMINGTON     SUNNY     54  45  71 NW12      30.07R


$$

NCZ011>013-027>030-043-044-078>080-089-090>093-098-071700-
COASTAL PLAIN

CITY           SKY/WX    TMP DP  RH WIND       PRES   REMARKS
AHOSKIE        MOSUNNY   49  44  80 N6        30.06F
CLINTON        SUNNY     55  45  70 NW3       30.08S
ELIZABETHTOWN  SUNNY     54  44  69 CALM      30.07F
GOLDSBORO      SUNNY     54  46  73 VRB3      30.05S
GREENVILLE     SUNNY     54  45  71 N6        30.08S
HAVELOCK       MOSUNNY   53  45  74 N9        30.06R
KENANSVILLE    SUNNY     55  45  67 N7        30.07F
KINSTON        SUNNY     55  45  67 N7        30.07S
NEW BERN       SUNNY     53  44  71 N6        30.07R
RICHLANDS      SUNNY     54  45  71 N8        30.07S
ROCKY MOUNT    SUNNY     53  44  71 N6        30.07S
WASHINGTON     SUNNY     54  44  69 N9G17     30.06S
WHITEVILLE     SUNNY     55  45  69 CALM      30.07F

$$

AMZ130-135-150-152-154-156-158-170-250-252-270-ANZ085-086-088-633-658-670-071700-
MARINE OBSERVATIONS

STATION/POSITION TIME  TEMP    WIND        PRES    WAVE   SWELL
                       AIR SEA DIR/SP/G            HT/PER HT/PER
                 (UTC) (F)     (DEG/KT/KT) (MB)    (FT/S) (FT/S)
CHESAPEAKE LIGHT NOT AVBL
64 E VA BEACH    1550   51 59  340/ 19/ 25 1014.6    9/ 6   3/10
DUCK             1600   50 54  340/ 19/ 21 1015.5
2 E DUCK         NOT AVBL
OREGON INLET     1600   49 56  320/ 11/ 13 1016.2
13E OREGON INLT  NOT AVBL
HATTERAS CG      1600   49 60  330/ 14/ 17 1016.2
DIAMOND BUOY     1550   54 76  350/ 16/ 21 1016.4    6/11   3/11
CAPE LOOKOUT     1600   51     350/ 11/ 13 1017.1
BEAUFORT LAB     1600   51 55  360/ 11/ 14 1016.4
30 SE NEW RVR IN 1608   51 70  350/ 12/ 17 1017.4
30 SE NEW RVR IN NOT AVBL
27 SE WRIGHTSVLE 1608   53 68   10/ 14/ 19 1017.0
5 SE WRIGHTSVLE  1608   51 61  350/ 12/ 17 1017.4
225 S CAPE HAT   1550   71 74  310/ 16/ 17 1015.2    8/ 8   7/ 8
41 SE CHARLESTON 1550   60 74   10/  8/ 12 1017.8    2/ 8   2/ 8

$$




USA.gov is the U.S. government's official web portal to all federal, state and local government web resources and services.